Regional Weather Roundup
Issued by NWS

Home | Current Version | Previous Version | Graphics & Text | Print | Product List | Glossary On
Versions: 1 2 3 4 5 6 7 8 9 10 11 12 13 14 15 16 17 18 19 20 21 22 23 24 25 26 27 28 29 30 31 32 33 34 35 36 37 38 39 40 41 42 43 44 45 46 47 48 49 50
000
ASUS43 KTOP 262208
RWRKS

WEATHER ROUNDUP FOR KANSAS
NATIONAL WEATHER SERVICE GOODLAND KS
500 PM CDT WED JUL 26 2017

NOTE:  "FAIR" INDICATES FEW OR NO CLOUDS BELOW 12,000 FEET WITH NO
SIGNIFICANT WEATHER AND/OR OBSTRUCTIONS TO VISIBILITY.

KSZ001>006-013>018-027>032-041>047-262300-
NORTHWEST KANSAS

CITY           SKY/WX    TMP DP  RH WIND       PRES   REMARKS
GOODLAND       MOSUNNY   84  66  54 NE15G25   30.09F
HAYS           PTSUNNY   96  68  39 VRB5      29.90F HX 101
HILL CITY      PTSUNNY   90  72  55 N20       29.97S HX  97
RUSSELL        FAIR      95  67  39 SE7       29.89F HX  99
$$

KSZ061>065-074>080-084>089-262300-
SOUTHWEST KANSAS

CITY           SKY/WX    TMP DP  RH WIND       PRES   REMARKS
DODGE CITY     FAIR      96  67  38 VRB3      29.96F HX 100
ELKHART          N/A     95  56  27 N6          N/A
GARDEN CITY    FAIR      91  66  43 N12G18    30.01F
GREAT BEND     FAIR      95  68  41 SW8       29.91F HX  99
LIBERAL        FAIR      97  62  31 NW8       29.98F HX  98
PRATT          FAIR      85  68  57 CALM      29.94F
$$

KSZ066>073-081>083-090>101-262300-
SOUTHEAST KANSAS

CITY           SKY/WX    TMP DP  RH WIND       PRES   REMARKS
CHANUTE        FAIR      95  73  48 S12G22    29.95F HX 104
COFFEYVILLE    FAIR      94  73  50 S14G23    29.94F HX 103
HUTCHINSON     FAIR      84  71  65 S9        29.91F
MEDICINE LODGE   N/A     89  70  53 S7        29.89S
NEWTON         LGT RAIN  74  69  85 S16       29.96S
PARSONS        FAIR      93  73  52 S7G17     29.96F HX 102
WICHITA INTL   TSTM      80  73  79 S10       29.91F
WICHITA JABRA  TSTM      78  69  73 S15G32    29.92R
WICHITA MCCONL LGT RAIN  79  72  78 SE7       29.92F
WINFIELD       FAIR      95  68  41 S14       29.93F HX  99
$$

KSZ007>012-019>026-033>040-048>060-102>105-262300-
NORTHEAST KANSAS

CITY           SKY/WX    TMP DP  RH WIND       PRES   REMARKS
CONCORDIA      FAIR      84  75  74 E7        29.96R
EMPORIA        PTSUNNY   84  75  74 E13       29.94F
LAWRENCE       LGT RAIN  77  77 100 SE9       29.97F FOG
MANHATTAN      LGT RAIN  80  76  87 SE6       29.91F
MARYSVILLE     FAIR      81  72  74 SW6       29.97F
OLATHE IND     LGT RAIN  78  77  96 W5        30.01R FOG
OLATHE EXE     RAIN      78  77  96 W6        30.01R FOG
SALINA         FAIR      87  76  69 E13       29.91S HX  97
TOPEKA BILLARD LGT RAIN  77  75  93 SE13      29.94F
TOPEKA FORBES  LGT RAIN  78  77  96 SE8       29.95F FOG
$$



USA.gov is the U.S. government's official web portal to all federal, state and local government web resources and services.